Location: Unspecified
(0.0000°N, 0.0000°E)
Time: 06:05:27

CUBESAT XI-V - Pass Details

Date: 14 December 2017
Orbit: 670 x 693 km, 97.9° (Epoch: 19 March)

Event Time Altitude Azimuth Distance (km) Brightness Sun altitude
Rises 04:41:12 0° 196° (SSW) 3,018 ? -16.8°
Reaches altitude 10° 04:44:00 10° 214° (SSW) 2,105 ? -16.2°
Maximum altitude 04:47:11 19° 258° (WSW) 1,597 ? -15.5°
Enters shadow 04:47:13 19° 259° (WSW) 1,597 ? -15.4°
